Volver al catálogo

FLOCK 4G 18

ActivoCienciaSSO
NORAD 62680·PAYLOAD·🇺🇸 United States

Lanzado Jan 14, 2025 desde Vandenberg Space Force Base

Loading…

Próximos Pases (próximas 24 horas)

TLE

ActualizadoSource: Space-Track

Época: Sep 14, 2026, 11:56 UTC

1 62680U 25009BZ  26257.49733742  .00034018  00000-0  95785-3 0  9992
2 62680  97.3950 339.3002 0004151  22.1392 338.0031 15.36376606150228

Sigue FLOCK 4G 18 en tiempo real con AllMySat

Download on the App Store